This is the latest recevied weather packets stored in our database for station/object DL2MWB-13. If no packets are shown the sender has not sent any weather packets the latest 1 day(s).
| Time | Temp. | Humidity | Pressure | Rain* | Wind** | Luminosity | Snow |
|---|---|---|---|---|---|---|---|
| 1778105031 | 13.89° C | 64% | 1017 hPa | - | - | - | - |
| 1778103825 | 13.89° C | 63% | 1017 hPa | - | - | - | - |
| 1778101410 | 13.89° C | 63% | 1017 hPa | - | - | - | - |
| 1778100203 | 13.89° C | 63% | 1017 hPa | - | - | - | - |
| 1778098996 | 14.44° C | 63% | 1016 hPa | - | - | - | - |
| 1778095375 | 15° C | 63% | 1016 hPa | - | - | - | - |
| 1778094168 | 15° C | 63% | 1016 hPa | - | - | - | - |
| 1778093565 | 15° C | 63% | 1016 hPa | - | - | - | - |
| 1778091754 | 15.56° C | 63% | 1015 hPa | - | - | - | - |
| 1778090547 | 15.56° C | 63% | 1015 hPa | - | - | - | - |
| 1778089340 | 16.11° C | 63% | 1015 hPa | - | - | - | - |
| 1778088133 | 16.11° C | 64% | 1015 hPa | - | - | - | - |
| 1778086926 | 16.11° C | 64% | 1015 hPa | - | - | - | - |
| 1778085719 | 16.11° C | 65% | 1014 hPa | - | - | - | - |
| 1778084512 | 16.67° C | 66% | 1015 hPa | - | - | - | - |
| 1778082098 | 15° C | 64% | 1014 hPa | - | - | - | - |
| 1778080891 | 15° C | 65% | 1014 hPa | - | - | - | - |
| 1778079685 | 16.67° C | 61% | 1013 hPa | - | - | - | - |
| 1778078477 | 16.67° C | 59% | 1012 hPa | - | - | - | - |
| 1778077270 | 16.67° C | 66% | 1012 hPa | - | - | - | - |
| 1778076063 | 16.11° C | 67% | 1012 hPa | - | - | - | - |
| 1778074856 | 15.56° C | 67% | 1012 hPa | - | - | - | - |
| 1778073649 | 15.56° C | 66% | 1013 hPa | - | - | - | - |
| 1778071235 | 16.67° C | 54% | 1012 hPa | - | - | - | - |
| 1778070028 | 16.67° C | 51% | 1012 hPa | - | - | - | - |
* Rain since midnight (hover to see other rain measurements)
** Current wind speed in m/s (hover to see current wind gust speed)